Temp
12 14 14 15 16 17 17 15 17 18 19 19 17 18 19 16 14 14 14 14 14 14 16 17 17 18 18 18 18 18 17 17 17 17 16 17 17 17 16 16 16 16 15 15
12 14 15 15 16 15 15 16 16 18 18 18 18 17 17 15 16 15 16 14 14 14 13 16 16 17 17 18 18 18 18 18 17 17 17 17 17 17 17 16 16 15 15 15
13 15 15 15 15 14 13 15 16 17 18 18 17 18 17 17 15 16 14 14 14 15 14 14 15 16 18 17 18 18 18 18 18 17 17 17 17 17 17 16 15 15 15 15
14 15 15 14 14 16 14 15 15 14 16 16 17 19 17 16 17 14 16 13 14 13 13 13 15 16 16 18 18 18 18 18 18 18 17 16 16 16 17 17 17 16 15 15
12 14 14 13 14 15 15 15 14 13 13 14 16 14 19 15 16 17 15 14 14 14 14 14 14 17 18 18 19 19 18 18 17 17 17 17 16 17 17 17 16 15 14 14
11 12 15 15 15 15 13 13 11 11 10 11 13 14 16 18 16 18 18 17 16 13 11 11 15 17 17 18 18 17 17 17 17 17 16 16 16 16 16 16 16 15 14 14
10 11 11 14 13 12 11 12 12 12 12 13 13 13 17 18 15 18 20 19 16 14 11 10 9 12 15 16 16 16 16 15 16 16 16 16 16 17 17 16 16 15 13 13
12 12 11 13 13 11 11 14 13 13 12 13 12 15 18 16 15 14 15 14 14 11 10 10 11 12 14 15 15 16 15 15 14 14 15 16 16 16 17 16 15 15 14 13
11 13 10 12 13 12 10 12 15 13 6 12 14 14 15 14 14 13 13 12 12 11 11 12 9 11 13 14 15 15 15 15 15 14 14 14 15 15 16 15 15 14 13 12
12 12 10 12 13 13 12 14 13 12 12 13 13 13 18 17 17 14 13 12 12 11 10 8 8 10 11 12 13 14 14 15 15 13 14 14 14 14 14 15 14 13 12 12
12 12 10 11 11 11 10 11 11 13 12 13 12 14 13 18 17 17 17 15 13 9 9 7 7 10 11 11 11 12 12 12 13 13 13 14 13 14 14 13 13 12 11 11
11 11 9 11 13 12 11 11 12 14 12 11 11 13 16 13 13 14 14 12 10 8 7 6 7 8 8 9 9 10 10 9 10 11 12 13 13 13 13 13 11 12 11 10
11 10 9 11 12 11 11 12 13 13 12 14 13 15 15 13 13 12 12 11 9 7 6 6 5 5 6 8 8 9 9 9 10 10 11 11 11 11 13 11 11 11 10 9
14 11 11 12 12 11 11 13 13 14 12 14 14 15 18 19 16 15 12 11 9 7 7 6 5 5 6 7 7 8 8 8 9 9 9 10 10 10 11 11 10 9 9 9
13 10 12 13 14 13 12 12 13 13 14 14 16 15 16 17 18 16 13 9 8 8 7 7 6 4 5 6 6 7 7 8 7 8 9 9 9 10 10 9 9 8 8 8
11 10 13 10 13 13 12 12 13 14 14 15 15 15 15 16 13 12 11 9 9 9 8 7 5 5 5 5 6 6 6 7 7 7 7 8 8 8 8 8 7 7 7 7
13 9 9 9 12 12 11 12 14 14 13 16 15 17 18 15 15 15 15 10 10 10 9 6 5 6 6 5 5 6 6 6 6 7 7 7 7 7 7 7 6 6 6 5
10 10 6 8 9 11 12 12 14 14 15 16 15 14 15 15 16 14 13 12 11 10 8 7 7 7 6 6 6 6 6 6 5 5 6 6 6 6 6 6 6 5 5 5
13 10 7 10 7 9 12 11 11 12 14 14 14 14 14 14 15 14 12 11 12 10 10 10 8 8 6 6 6 6 5 5 5 5 5 6 6 6 5 5 4 4 4 4
10 13 12 8 6 8 12 12 11 13 13 14 14 14 14 12 14 16 17 10 10 10 10 9 9 8 6 6 6 5 3 3 3 5 6 6 5 5 5 4 4 4 3 3
6 7 11 9 6 6 8 12 12 12 13 11 12 14 13 14 16 14 14 12 11 10 10 9 9 7 6 5 5 3 3 3 5 5 6 5 5 5 5 4 3 3 2 2
8 9 9 4 4 9 8 10 13 13 12 12 12 12 11 11 9 10 11 11 10 9 8 9 7 7 6 5 4 3 2 3 4 5 4 4 4 3 3 3 2 2 2 1
10 9 8 11 10 10 8 9 8 8 9 10 10 8 9 11 11 8 8 7 6 7 6 7 7 6 5 5 5 3 3 3 4 3 3 3 2 2 2 2 1 0 0 0
6 3 7 9 6 8 8 7 8 8 8 8 7 7 7 8 7 7 5 5 4 3 3 5 6 4 2 3 4 4 3 3 3 1 1 1 1 -0 -0 -0 0 1 -0 -1
5 5 4 4 4 4 4 5 7 7 7 7 7 6 6 6 6 5 4 1 1 0 2 3 4 2 2 2 2 3 2 2 -0 -1 -1 -1 -1 -1 -2 -2 -1 -1 -2 -1
4 6 7 7 7 8 7 6 5 7 7 5 5 6 4 3 3 3 0 -1 -0 -0 1 1 2 2 1 1 1 1 1 1 -0 -3 -4 -3 -3 -3 -3 -3 -4 -4 -3 -3
Height
804 806 796 806 809 811 819 828 827 825 818 820 823 818 811 813 820 821 819 819 820 820 822 827 828 831 833 836 841 845 849 852 856 860 863 865 867 871 873 875 877 879 881 882
806 796 797 807 810 817 823 825 827 825 823 823 819 818 813 816 813 812 811 815 814 817 819 822 825 826 828 831 835 839 844 848 851 855 859 862 865 868 870 873 875 876 879 881
797 794 798 804 812 822 825 821 827 830 824 822 823 816 813 808 810 809 811 810 811 809 812 815 817 821 822 825 829 833 837 842 847 851 855 859 861 864 868 870 871 873 875 877
796 793 799 804 810 810 823 822 828 836 832 835 826 819 808 807 803 805 803 807 804 806 808 809 811 815 817 817 823 829 832 836 841 845 850 853 856 859 863 867 869 871 873 874
795 795 798 804 806 813 817 821 833 841 846 844 830 841 797 806 802 797 797 798 798 797 800 800 801 806 809 813 816 822 827 830 834 839 844 848 852 855 859 862 864 867 870 871
801 800 793 796 803 809 820 828 842 850 861 857 832 834 804 793 797 787 785 785 787 790 793 794 798 802 804 808 810 814 820 824 828 832 837 841 846 851 854 858 863 865 866 868
804 799 803 797 811 822 825 827 844 849 852 829 826 836 789 779 784 776 772 773 777 781 786 789 792 796 798 801 804 808 813 818 823 828 832 835 840 845 847 852 854 859 863 866
789 800 802 795 799 811 823 813 820 833 840 830 834 810 774 774 774 773 773 773 775 779 781 782 781 786 789 794 799 802 806 812 817 822 826 830 835 839 843 848 850 854 858 861
786 785 798 799 796 804 825 820 809 823 868 832 813 795 781 775 775 774 775 776 772 772 773 770 775 781 785 788 794 799 802 805 810 814 819 824 830 833 838 843 847 852 856 859
777 788 799 798 796 801 805 807 820 826 827 826 810 805 770 770 768 771 771 771 765 767 768 768 772 776 782 786 791 795 800 803 806 810 813 818 823 829 835 838 843 849 853 856
775 783 803 798 801 798 812 809 818 809 811 811 818 790 767 757 756 756 753 754 755 764 767 768 771 777 781 784 787 791 795 797 802 806 810 814 818 822 829 835 840 845 849 853
775 787 805 796 787 791 797 798 802 797 804 807 809 786 752 759 759 755 753 755 756 761 765 769 770 774 777 782 786 789 792 794 797 802 807 810 815 820 825 831 836 842 847 852
765 786 804 795 792 790 787 791 786 787 795 785 795 774 753 756 755 756 754 755 757 764 766 768 770 772 775 779 783 787 790 792 795 800 805 809 812 818 823 829 832 839 845 850
750 770 772 765 763 773 784 780 785 790 797 780 778 761 749 739 748 750 751 754 761 764 762 765 770 769 770 774 780 786 789 792 793 798 802 805 812 817 821 828 832 837 843 848
750 768 764 758 757 763 770 774 778 780 776 781 755 764 756 749 741 743 744 755 761 760 760 760 762 768 772 774 776 780 787 791 794 798 800 804 809 816 822 826 832 839 842 848
755 770 755 773 762 767 774 770 766 767 766 763 761 755 747 744 747 748 749 757 757 756 756 757 760 766 769 770 773 777 782 788 795 796 799 804 810 815 821 826 830 838 841 846
746 769 777 785 770 771 781 759 759 756 757 743 755 733 738 744 744 740 737 750 749 746 747 750 754 758 760 764 769 773 780 788 793 795 799 803 808 813 819 824 829 835 838 843
753 760 787 792 782 779 748 744 740 743 736 737 738 739 738 736 731 735 737 741 741 741 741 742 745 751 756 762 768 774 779 784 788 793 797 802 806 812 818 824 828 833 836 840
735 754 781 773 798 765 741 741 746 750 734 732 733 734 731 733 733 732 731 730 728 730 729 730 737 745 751 757 763 771 775 779 784 788 794 799 804 809 816 821 826 833 836 839
740 735 746 779 800 780 734 726 731 730 729 719 723 726 725 735 742 727 714 722 721 721 723 727 733 741 747 752 758 765 770 773 778 783 790 796 802 807 813 819 823 828 834 837
761 763 743 764 786 768 740 727 724 740 733 720 717 713 719 726 718 720 715 717 717 719 722 726 731 734 740 747 754 759 762 765 771 778 788 795 802 806 811 816 820 824 830 834
739 745 751 780 790 752 731 730 724 714 716 717 715 716 720 720 723 722 720 718 719 720 721 722 727 732 737 742 749 753 755 762 768 775 784 793 799 805 808 813 817 823 827 831
725 724 737 728 724 717 723 721 722 721 720 720 721 724 722 720 722 724 722 722 722 723 724 725 727 730 734 738 741 746 751 757 765 772 781 789 796 801 806 810 815 819 823 828
728 733 729 724 727 720 720 722 722 721 721 724 724 726 727 725 727 727 728 727 727 726 727 728 729 731 734 737 740 745 748 754 761 769 778 785 791 797 804 810 813 816 820 824
725 724 734 736 732 729 725 725 723 723 723 725 727 727 728 729 729 730 732 730 730 730 729 729 730 731 733 737 741 744 748 754 761 768 774 781 788 795 802 808 812 815 818 822
725 719 718 719 714 715 721 722 724 726 726 729 729 729 731 733 734 734 734 732 731 730 731 731 732 733 734 737 739 742 746 751 757 765 771 778 785 793 799 803 807 812 816 818
Wind_Speed
3 6 17 15 17 2 9 5 12 2 5 4 7 9 12 6 3 6 10 11 11 12 16 20 29 33 33 33 34 34 33 32 30 28 25 25 22 19 18 18 17 16 13 11
4 13 9 13 13 8 10 12 17 5 3 3 4 12 10 5 7 11 13 10 12 7 7 16 25 33 33 36 36 37 37 36 35 33 31 27 23 21 21 19 16 15 15 13
4 1 12 13 13 12 8 15 9 3 1 2 4 9 8 5 4 4 7 7 8 16 13 11 21 30 38 37 38 38 39 38 38 37 34 30 22 22 18 21 19 18 16 14
4 4 16 14 18 16 12 7 2 6 4 9 1 10 10 7 11 9 11 9 12 11 8 9 17 26 33 39 39 38 37 38 38 38 37 34 26 22 23 19 20 17 14 13
4 10 18 18 16 14 3 10 8 4 3 5 9 3 5 3 11 11 11 11 13 13 13 14 20 30 37 37 37 38 38 38 38 39 38 38 33 28 24 19 18 15 15 14
2 4 10 9 13 14 8 9 9 6 3 4 12 7 6 11 6 7 11 13 15 12 11 10 20 28 31 32 32 34 36 37 37 37 38 38 36 32 24 18 16 15 14 13
2 3 2 7 15 8 7 12 3 2 4 10 5 6 19 6 9 12 17 17 14 11 9 10 10 19 26 28 28 30 32 33 34 35 36 37 36 34 31 25 25 21 17 15
7 6 9 6 6 6 10 6 6 7 5 2 5 11 10 9 8 7 7 6 4 8 9 11 15 23 29 28 27 27 30 33 30 32 35 35 36 35 29 27 26 23 21 18
6 5 4 7 5 11 5 7 2 4 2 2 5 8 9 6 8 7 10 7 10 10 12 16 15 23 27 28 27 26 27 28 30 31 32 33 35 33 28 27 25 24 22 20
5 4 5 5 3 2 7 10 3 1 5 5 5 6 11 8 9 10 9 12 13 8 8 8 10 18 22 20 20 21 23 25 27 28 30 31 33 33 29 28 27 26 23 20
2 4 2 8 10 10 4 5 1 2 3 4 2 6 8 14 10 12 14 16 12 9 8 7 9 17 17 17 17 17 19 22 25 28 30 31 32 31 30 30 28 25 22 20
6 4 4 8 3 10 7 7 8 6 9 4 3 6 2 8 7 6 8 6 2 5 7 7 10 16 16 16 15 17 18 20 23 27 30 31 32 34 33 30 28 23 23 23
9 4 3 3 6 3 11 10 19 4 2 12 5 6 2 4 5 7 7 5 5 6 7 6 8 11 17 18 18 18 18 20 24 26 29 31 35 35 31 30 27 27 27 26
14 5 7 9 2 8 8 20 9 16 5 4 12 4 12 15 6 6 6 4 6 6 9 8 7 11 18 20 20 20 20 22 25 29 31 34 35 34 34 31 30 30 28 26
9 6 4 4 3 4 8 14 20 18 22 8 19 13 6 11 6 7 4 5 6 8 10 10 7 5 14 19 21 22 23 24 26 30 33 35 34 33 33 34 32 29 26 22
1 2 3 2 3 4 6 10 21 21 18 17 17 18 5 5 8 6 6 7 9 11 10 9 8 11 17 22 25 26 26 27 29 31 32 33 33 35 35 34 32 28 25 22
12 4 3 5 3 7 5 19 18 15 9 18 19 19 2 7 9 9 8 11 13 11 11 11 12 17 22 26 28 29 29 29 29 30 31 34 36 36 35 33 30 27 24 21
7 9 3 2 2 6 8 8 22 19 20 20 17 6 7 10 11 7 5 9 12 9 11 13 15 21 22 26 28 29 30 31 31 31 34 37 37 36 33 30 28 26 23 21
11 5 3 5 4 6 9 6 8 10 21 14 15 9 12 4 3 8 9 13 14 11 13 19 21 22 25 31 33 32 32 33 33 36 38 39 38 37 34 31 28 24 22 20
5 5 5 3 6 10 4 9 8 7 14 10 13 14 14 7 5 14 14 7 13 15 16 17 23 24 27 31 36 36 34 36 37 40 42 40 38 36 34 30 28 25 21 19
3 1 12 6 4 7 8 2 4 7 3 1 6 11 7 8 9 2 4 0 2 7 11 17 25 26 29 32 38 34 35 37 40 40 40 39 36 34 31 29 27 24 21 17
7 8 5 3 1 11 7 4 10 4 1 1 2 2 5 3 6 4 5 5 2 3 9 20 21 22 27 33 37 30 32 34 39 40 40 38 35 32 30 29 25 23 20 17
2 6 7 11 7 4 4 2 3 2 2 3 3 4 4 2 2 5 4 6 6 6 5 12 18 21 27 34 38 30 30 36 40 40 40 39 34 31 29 28 26 23 19 17
2 1 4 4 4 4 3 2 1 1 3 2 3 3 4 4 5 5 5 5 6 10 5 7 14 18 20 26 30 28 30 37 40 40 41 38 35 31 28 25 22 20 19 16
3 6 6 3 4 2 2 3 3 2 3 3 2 2 4 5 5 4 4 4 3 2 3 6 13 16 18 22 25 25 29 35 37 38 39 37 34 32 28 23 20 17 14 12
3 4 4 4 4 4 2 3 3 2 4 7 7 5 5 5 5 5 3 4 6 6 4 4 8 11 13 18 23 25 29 34 39 34 35 36 36 32 28 25 18 15 12 12
Wind_Direction
162 186 201 182 195 160 181 174 225 246 264 201 220 235 243 191 252 213 209 204 208 215 226 225 218 216 214 215 214 215 214 214 211 209 206 209 212 222 224 225 228 226 222 227
143 219 185 151 183 146 164 187 207 252 263 231 221 252 249 177 217 218 214 211 212 215 208 218 220 218 215 217 219 219 220 219 216 214 211 214 223 228 236 230 227 222 225 237
174 283 139 157 173 158 184 189 189 242 281 182 313 262 248 229 222 219 225 216 211 219 215 218 214 216 216 217 221 222 223 224 223 221 220 219 224 222 231 233 232 235 240 246
245 171 157 163 189 188 197 174 94 27 337 232 353 263 248 221 233 204 226 209 226 216 215 220 218 221 218 219 223 227 227 227 227 225 221 217 213 212 229 237 242 242 242 240
157 186 173 181 184 178 210 122 94 87 27 9 238 267 234 148 239 227 227 223 229 222 214 218 214 224 226 224 222 226 228 228 226 225 223 221 218 226 229 226 229 228 230 232
92 298 179 182 167 168 115 85 54 53 76 244 224 209 223 219 194 223 230 227 225 220 218 218 230 228 227 224 223 223 225 226 225 224 221 222 220 223 218 214 215 212 215 214
133 144 339 145 124 87 117 146 114 158 191 235 202 207 245 283 219 200 222 225 220 216 195 200 191 203 211 211 211 212 214 218 222 223 222 222 223 225 222 205 202 199 200 192
155 192 175 182 181 159 163 186 152 179 194 291 126 228 236 231 227 229 260 257 252 207 201 209 204 200 202 202 204 203 206 212 212 218 222 224 223 226 219 210 199 199 196 195
167 174 140 202 133 141 163 212 89 102 72 74 202 267 307 249 271 243 241 250 235 221 209 205 189 196 198 199 203 206 206 208 211 211 216 218 219 219 209 203 199 192 186 180
198 127 199 169 96 243 182 154 191 306 177 231 251 271 229 201 231 244 249 238 246 235 209 186 179 184 196 199 206 213 219 219 216 211 213 210 213 215 205 196 188 185 180 176
72 101 143 137 206 176 142 180 178 251 186 181 195 252 213 210 221 220 225 229 228 215 211 176 161 185 193 200 205 212 216 216 214 209 211 212 203 196 188 180 180 180 177 177
179 121 162 191 148 192 183 176 171 190 210 204 137 275 205 241 298 280 277 300 280 181 170 166 167 179 187 196 198 204 207 206 205 202 203 196 187 177 175 177 175 175 176 175
164 197 108 84 326 312 205 200 203 266 343 215 148 243 200 229 270 269 270 256 206 176 168 163 164 179 188 194 198 198 199 198 194 195 193 185 176 175 175 174 170 176 173 169
153 170 181 187 219 137 190 196 194 217 251 236 246 312 297 290 276 282 257 225 200 206 180 176 189 195 191 195 194 193 195 195 190 190 187 180 179 177 172 173 171 169 170 170
172 201 167 218 67 137 168 183 198 209 222 214 249 252 250 272 289 265 226 186 197 199 197 196 189 176 186 192 193 194 195 192 190 186 181 180 178 176 173 167 165 168 168 169
114 276 119 51 37 222 197 195 200 215 223 238 244 257 231 261 313 182 219 206 207 210 209 198 175 180 192 193 195 195 194 193 192 187 183 180 176 172 168 165 166 169 168 170
201 139 103 226 115 87 307 217 217 220 209 227 236 243 257 264 259 264 269 198 211 213 201 192 188 197 196 195 193 192 194 194 191 189 184 179 173 169 169 169 169 170 169 169
148 173 116 160 92 213 239 214 212 222 240 229 247 243 227 238 258 265 220 213 229 208 196 200 200 202 196 196 197 195 192 190 189 187 181 178 174 172 171 171 172 172 171 173
184 144 103 144 201 301 279 221 164 180 246 226 234 228 236 226 337 283 216 217 223 206 210 212 201 195 188 195 196 194 189 190 187 187 183 180 179 176 176 176 175 174 175 176
76 193 143 172 169 214 238 206 167 128 260 242 206 229 242 138 221 261 250 203 217 209 208 194 189 185 185 190 195 191 187 189 190 191 189 186 185 182 180 179 177 179 181 180
109 68 195 180 222 284 245 202 152 165 242 88 200 220 195 194 220 292 345 194 234 210 193 189 185 185 191 190 194 187 188 193 196 193 192 189 188 187 185 180 182 180 178 178
155 153 186 112 157 253 177 52 177 232 47 5 11 189 193 254 332 357 354 10 20 176 187 191 182 190 192 195 193 190 195 195 196 193 192 189 188 187 184 183 178 178 178 176
209 179 172 191 208 224 175 331 93 126 95 28 29 9 2 228 359 335 346 354 350 333 255 211 195 187 192 201 200 192 195 196 195 192 190 187 186 185 184 181 178 174 177 180
269 219 175 103 250 216 140 125 141 151 108 102 74 12 2 20 7 347 349 350 345 340 318 216 192 185 189 203 205 205 197 197 193 187 187 184 182 179 180 182 181 180 179 181
199 136 160 274 289 315 216 229 161 132 96 84 87 78 33 354 359 2 346 338 7 337 315 229 204 199 202 204 204 205 200 195 185 184 181 180 181 178 176 178 181 183 184 192
198 174 181 216 175 122 80 91 107 117 34 38 35 47 38 37 15 2 356 6 351 336 318 217 211 209 205 208 206 201 200 196 189 174 174 176 178 178 177 172 166 175 188 201